SKYSAT-C2

Last updated on Sun Jun 21 2026 00:02:52 GMT+0000 (Coordinated Universal Time)

1 41773U 16058D 26170.98472481 .00010132 00000+0 23850-3 0 9998 2 41773 97.0167 192.9745 0004463 64.8229 295.3482 15.42124031545481
UTC large
Height (km)
Speed (km/s)
/
Latitude / Longitude
Inclination (degrees)
Orbital Period (minutes)
Azimuth
Elevation
Range (km)
Doppler Factor

Next 0 passes for location: London (51.5072 / 0.1276)

No passes found over London.
SKYSAT-C2